Wind_Speed
13 13 14 15 16 17 17 18 17 17 18 18 18 19 20 20 20 21 21 21 21 22 21 22 23 23 24 25 26 27 28 29 29 29 29 29 29 30
14 15 15 16 16 17 17 17 17 17 18 19 20 20 20 21 21 20 21 21 22 23 24 24 24 25 25 25 26 27 28 29 30 29 29 30 30 31
14 15 16 16 17 16 17 17 17 17 17 19 20 20 21 21 21 22 22 22 23 24 24 24 25 25 26 27 27 28 29 30 30 30 30 31 31 32
14 14 15 15 15 16 16 17 17 18 18 18 19 20 21 21 21 23 23 23 24 24 25 25 25 26 27 28 28 28 29 29 29 30 30 31 32 32
15 15 16 16 16 16 16 17 18 18 18 18 20 20 21 21 21 22 23 24 24 25 25 25 26 26 28 28 28 28 28 28 29 30 31 31 31 32
15 16 16 16 17 17 17 17 18 18 19 20 20 20 21 22 22 23 24 24 25 26 27 27 28 28 29 29 29 28 28 28 29 30 30 31 32 33
16 17 17 17 18 18 19 19 19 20 20 20 21 21 22 22 23 24 25 25 26 27 27 28 29 29 29 29 29 29 29 30 31 31 31 32 33 33
17 18 18 19 19 20 20 20 21 21 21 21 21 22 23 24 25 25 25 26 27 28 28 28 29 29 29 30 30 30 31 31 32 32 32 32 33 34
18 18 19 19 20 21 21 22 22 22 22 22 22 23 24 25 26 26 27 27 28 28 29 29 29 30 30 30 30 31 31 31 31 32 32 33 34 34
19 20 20 20 21 21 21 22 22 22 23 23 24 25 25 26 27 28 28 29 29 29 30 30 30 31 31 32 32 32 31 31 32 32 32 32 33 33
20 21 21 21 22 23 23 23 23 24 25 25 26 26 27 27 28 29 29 29 30 30 30 31 31 32 32 32 32 31 31 31 31 31 31 31 32 32
22 22 23 24 24 24 24 25 25 26 27 27 28 28 28 29 29 29 30 30 30 30 31 32 32 33 33 32 32 31 31 31 31 31 30 30 31 31
24 24 25 25 26 26 27 27 28 28 29 29 30 30 31 30 30 30 31 31 31 31 31 32 33 33 33 32 32 31 31 30 31 31 31 31 31 31
26 27 27 27 28 28 29 30 30 30 30 31 31 31 31 31 31 31 31 32 32 32 32 33 33 32 32 32 32 32 31 31 31 32 32 31 31 31
28 29 29 29 30 31 31 31 31 31 31 31 32 32 31 31 32 32 32 33 33 33 33 32 32 33 33 32 32 32 32 32 32 32 31 31 31 31
29 30 30 31 31 32 31 31 31 31 31 32 32 32 32 32 32 32 33 34 33 33 33 33 32 33 33 33 33 33 33 33 32 32 31 32 31 31
32 32 32 32 32 32 32 32 32 32 32 32 32 32 33 33 33 34 34 35 34 34 33 33 33 33 33 33 33 33 33 33 33 32 32 31 31 30
34 34 34 33 33 33 33 33 33 33 33 33 33 33 34 34 34 34 34 34 34 34 34 34 34 34 34 33 33 33 33 33 32 32 32 32 31 31
34 34 34 34 34 34 34 34 34 34 34 34 34 34 34 34 34 34 34 35 35 35 34 34 34 34 34 34 33 33 33 32 32 32 32 31 31 30
34 35 35 34 34 35 35 35 35 35 35 35 35 35 34 34 34 35 35 34 34 34 34 34 34 33 33 33 33 32 32 32 31 31 31 31 30 30
36 36 35 35 35 36 36 36 36 36 36 36 36 35 35 35 35 35 35 34 34 34 34 34 34 34 34 34 33 32 31 31 31 30 30 30 29 28
36 37 36 36 36 36 36 37 36 36 36 36 35 35 35 35 35 35 35 34 34 35 35 35 34 33 33 33 32 32 31 31 30 30 30 29 28 28
37 37 37 37 37 37 37 36 36 36 36 36 35 35 35 36 36 36 36 35 35 35 35 34 33 33 33 33 32 31 31 31 31 30 30 29 29 29
Wind_Direction
281 282 282 280 281 279 279 280 281 279 278 280 280 281 283 284 284 285 285 283 284 285 285 285 285 286 286 285 283 282 283 284 284 283 283 281 280 282
282 283 285 283 281 282 282 283 282 280 279 280 283 283 284 286 286 286 285 284 284 286 286 286 286 287 287 287 285 285 284 284 284 283 282 283 283 284
287 286 288 289 286 284 284 285 283 281 281 281 282 284 286 287 287 286 286 286 287 287 288 288 287 287 287 287 287 285 284 284 285 285 285 284 285 286
291 292 294 294 294 289 287 285 285 286 286 285 284 285 285 284 285 284 286 289 289 289 289 290 290 289 288 288 289 288 287 288 288 286 286 286 285 286
293 294 294 294 293 294 292 292 291 290 288 289 288 286 285 285 286 285 286 289 290 291 291 291 291 291 289 289 288 288 288 288 288 287 287 286 287 287
296 296 295 294 293 293 292 294 294 291 289 289 290 290 288 288 288 289 288 290 290 291 291 291 291 291 291 290 288 288 288 287 289 290 289 287 288 289
296 297 297 295 295 293 291 291 292 293 292 290 290 290 291 291 290 291 292 292 293 293 293 292 292 293 293 292 291 290 290 289 289 289 290 290 289 289
297 298 297 295 294 293 292 291 292 293 294 292 291 290 291 292 291 292 293 294 294 294 293 294 295 294 294 294 292 292 293 292 291 291 290 290 289 290
297 297 297 296 294 293 293 292 293 294 294 293 291 291 291 293 293 293 294 295 295 295 294 294 294 295 296 294 293 293 293 293 292 291 291 290 290 291
296 295 295 296 295 294 294 293 293 293 293 293 291 292 293 293 293 293 293 293 294 295 295 295 295 295 294 293 293 293 293 293 293 292 292 291 292 292
296 296 295 295 295 295 294 293 293 293 293 293 293 293 293 293 293 293 293 292 293 293 294 295 296 296 295 295 295 294 293 294 294 293 293 292 292 293
296 296 295 293 294 294 293 293 294 294 294 293 293 292 292 292 292 292 293 292 293 293 294 295 296 296 295 295 295 294 294 294 294 294 294 294 294 294
295 295 294 293 293 293 293 293 293 293 293 292 292 292 291 291 291 291 292 292 294 294 294 295 295 295 294 294 294 294 294 294 294 294 293 293 294 295
294 295 295 294 293 294 294 294 293 292 291 291 292 292 291 291 292 293 293 293 294 295 294 294 295 295 294 294 294 293 293 293 294 293 294 294 294 296
292 293 294 294 294 294 294 294 293 292 291 292 292 293 292 292 292 293 293 294 295 295 294 294 295 295 294 293 293 293 292 293 293 293 293 293 294 295
292 293 293 294 294 294 295 294 293 292 293 293 293 293 292 293 293 293 293 294 295 294 294 293 294 295 294 293 294 293 293 292 292 292 292 293 294 295
291 292 293 293 294 294 294 294 294 294 293 293 293 293 293 293 293 294 294 294 294 294 294 293 293 293 292 293 293 294 293 293 292 292 293 293 294 293
291 291 292 293 293 294 294 294 293 293 292 293 292 293 293 293 293 293 294 294 294 293 293 292 292 292 291 291 292 292 292 292 293 292 292 293 293 292
291 292 293 293 292 292 293 293 292 292 291 291 292 292 293 293 293 293 293 294 294 293 292 292 292 292 292 291 292 292 292 292 292 293 293 292 292 293
291 291 292 292 292 292 292 292 291 291 290 290 291 292 292 292 292 294 294 293 293 293 293 293 293 293 292 292 292 292 291 292 292 292 292 292 292 291
290 290 290 290 290 290 291 291 290 290 290 290 291 291 291 291 291 292 293 293 293 293 293 293 293 293 293 292 291 291 290 291 291 291 292 291 291 291
288 288 288 289 289 290 291 291 290 289 290 291 291 291 291 291 291 291 291 291 291 291 291 292 293 292 292 292 291 291 290 290 290 291 291 290 289 288
288 288 288 288 289 289 290 289 289 289 289 290 290 291 290 290 290 290 290 290 290 291 292 293 293 292 292 292 292 291 291 291 290 290 289 288 288 287
Height
5881 5880 5879 5878 5877 5876 5875 5874 5873 5872 5871 5870 5869 5868 5867 5866 5865 5864 5863 5862 5861 5860 5858 5857 5856 5854 5853 5852 5850 5848 5847 5846 5844 5842 5840 5839 5837 5836
5877 5876 5875 5874 5873 5872 5871 5869 5868 5867 5866 5865 5864 5863 5862 5861 5859 5858 5857 5856 5855 5854 5852 5851 5849 5848 5846 5845 5844 5842 5840 5839 5837 5835 5833 5832 5830 5828
5874 5873 5872 5870 5869 5868 5867 5865 5864 5863 5862 5861 5859 5858 5857 5856 5854 5853 5852 5850 5849 5847 5846 5844 5843 5841 5840 5838 5837 5835 5833 5831 5829 5828 5825 5824 5822 5820
5870 5869 5868 5867 5865 5864 5863 5861 5860 5858 5857 5856 5854 5853 5852 5850 5849 5847 5846 5844 5843 5841 5839 5838 5836 5834 5833 5831 5830 5828 5826 5824 5821 5819 5817 5815 5813 5812
5867 5866 5864 5863 5862 5860 5859 5857 5856 5854 5852 5851 5850 5848 5847 5845 5843 5842 5840 5838 5836 5835 5833 5831 5829 5827 5826 5824 5822 5820 5818 5816 5814 5811 5809 5807 5805 5803
5863 5862 5860 5859 5858 5856 5855 5853 5851 5849 5848 5846 5845 5843 5841 5839 5838 5836 5834 5832 5830 5828 5826 5824 5822 5820 5818 5816 5814 5812 5810 5808 5806 5804 5801 5799 5797 5794
5859 5858 5856 5855 5853 5852 5850 5849 5847 5845 5843 5841 5840 5838 5836 5834 5832 5830 5828 5826 5824 5822 5820 5817 5815 5813 5811 5808 5806 5804 5802 5800 5797 5795 5793 5790 5788 5785
5855 5853 5852 5850 5848 5847 5845 5844 5842 5840 5838 5836 5834 5832 5831 5829 5826 5824 5822 5820 5818 5816 5813 5810 5808 5806 5803 5801 5798 5796 5794 5791 5789 5786 5784 5781 5779 5776
5850 5848 5847 5845 5843 5842 5840 5838 5836 5834 5833 5831 5829 5827 5824 5822 5820 5818 5815 5813 5811 5808 5806 5803 5800 5798 5795 5793 5790 5788 5785 5782 5780 5777 5775 5772 5769 5766
5845 5843 5841 5840 5838 5836 5834 5832 5830 5828 5826 5824 5823 5820 5818 5815 5813 5811 5808 5806 5803 5801 5798 5796 5793 5790 5787 5784 5782 5779 5776 5774 5771 5768 5766 5763 5760 5757
5840 5838 5836 5834 5832 5830 5828 5826 5824 5822 5819 5817 5815 5813 5811 5808 5806 5804 5801 5798 5796 5793 5790 5788 5785 5782 5779 5776 5773 5770 5767 5765 5762 5759 5756 5753 5750 5747
5834 5832 5830 5828 5826 5824 5822 5820 5817 5815 5813 5810 5808 5806 5803 5801 5798 5796 5793 5791 5788 5785 5782 5780 5777 5774 5771 5767 5764 5761 5758 5756 5753 5750 5747 5744 5741 5738
5828 5826 5824 5821 5819 5817 5815 5813 5810 5808 5805 5803 5800 5798 5795 5793 5790 5787 5785 5782 5779 5777 5774 5771 5768 5765 5762 5759 5755 5752 5750 5747 5744 5741 5738 5735 5732 5729
5821 5819 5817 5814 5812 5809 5807 5805 5802 5800 5797 5794 5792 5789 5787 5784 5781 5778 5776 5773 5770 5768 5765 5762 5759 5756 5753 5750 5747 5744 5741 5738 5735 5732 5729 5726 5723 5720
5814 5811 5809 5806 5804 5801 5799 5796 5793 5791 5788 5786 5783 5781 5778 5775 5773 5770 5767 5764 5761 5758 5755 5752 5749 5746 5744 5741 5737 5734 5732 5729 5726 5723 5720 5717 5714 5711
5806 5803 5801 5798 5795 5793 5790 5787 5785 5782 5779 5777 5774 5772 5769 5766 5763 5760 5758 5755 5752 5749 5746 5743 5740 5737 5734 5731 5728 5725 5722 5720 5717 5714 5711 5708 5705 5702
5797 5794 5792 5789 5786 5784 5781 5778 5776 5773 5770 5768 5765 5762 5759 5757 5754 5751 5748 5745 5742 5739 5736 5733 5730 5727 5724 5722 5719 5716 5713 5710 5707 5704 5701 5699 5696 5693
5788 5785 5782 5780 5777 5774 5772 5769 5766 5763 5761 5758 5755 5752 5750 5747 5744 5741 5738 5735 5732 5729 5726 5723 5720 5717 5715 5712 5709 5706 5703 5701 5698 5695 5692 5689 5687 5684
5778 5775 5773 5770 5768 5765 5762 5759 5757 5754 5751 5748 5745 5743 5740 5737 5734 5731 5728 5725 5722 5719 5716 5713 5710 5707 5705 5702 5699 5696 5694 5691 5688 5685 5683 5680 5678 5675
5768 5765 5763 5760 5758 5755 5752 5749 5746 5744 5741 5738 5735 5732 5730 5727 5724 5721 5718 5715 5712 5709 5706 5703 5700 5697 5694 5692 5689 5687 5684 5681 5678 5676 5673 5671 5669 5666
5758 5755 5753 5750 5747 5744 5742 5739 5736 5733 5730 5728 5725 5722 5719 5716 5713 5710 5708 5705 5702 5699 5696 5693 5690 5687 5684 5682 5679 5677 5674 5672 5669 5667 5664 5662 5660 5657
5747 5744 5742 5739 5737 5734 5731 5728 5725 5723 5720 5717 5714 5711 5709 5706 5703 5700 5697 5694 5691 5688 5685 5683 5680 5677 5674 5672 5669 5667 5665 5662 5660 5657 5655 5653 5651 5649
5736 5733 5731 5728 5726 5723 5720 5717 5715 5712 5709 5706 5703 5701 5698 5695 5692 5689 5686 5683 5680 5678 5675 5672 5669 5667 5664 5661 5659 5657 5655 5652 5650 5648 5646 5644 5642 5640